Weather History for Yankton, SD

Change the Weather History Date:

Tuesday, June 4, 2013

  Actual Average Record
Temperature  
Mean Temperature 65 °F -  
Max Temperature 73 °F 79 °F 100 °F (1968)
Min Temperature 57 °F 53 °F 38 °F (1954)
Growing Degree Days 15 (Base 50)    
Moisture  
Dew Point 55 °F    
Average Humidity 73    
Maximum Humidity 94    
Minimum Humidity 52    
Precipitation  
Precipitation 0.45 in - - ()
Sea Level Pressure  
Sea Level Pressure 29.93 in    
Wind  
Wind Speed 10 mph (NE)    
Max Wind Speed 17 mph    
Max Gust Speed 26 mph    
Visibility 10 miles    
Events Thunderstorm    
Averages and records for this station are not official NWS values.
T = Trace of Precipitation, MM = Missing Value Source: NWS Daily Summary

Daily Weather History Graph

Daily Weather History Graph

Search for Another Location

Airport:

Trip Planner

Search our weather history database for the weather conditions in past years. The results will help you decide how hot, cold, wet, or windy it might be!

Date:

Astronomy

Jun. 04, 2013 Rise Set
Actual Time 5:52 AM CDT 9:04 PM CDT
Civil Twilight 5:17 AM CDT 9:38 PM CDT
Nautical Twilight 4:32 AM CDT 10:23 PM CDT
Astronomical Twilight 3:38 AM CDT 11:17 PM CDT
Moon 3:27 AM CDT (6/4) 5:30 PM CDT (6/4)
Length of Visible Light 16h 21m
Length of Day
15h 12m
Waning Crescent, 14% of the Moon is Illuminated
Jun 4
Waning Crescent
Jun 8
New
Jun 16
First Quarter
Jun 23
Full
Jun 29
Last Quarter

Hourly Weather History & Observations

Time (CDT) Temp. Dew Point Humidity Pressure Visibility Wind Dir Wind Speed Gust Speed Precip Events Conditions
12:15 AM 66.2 °F 48.2 °F 52% 29.86 in 10.0 mi ESE 16.1 mph 26.5 mph N/A   Clear
12:35 AM 66.2 °F 48.2 °F 52% 29.87 in 10.0 mi ESE 15.0 mph 23.0 mph N/A   Clear
12:55 AM 64.4 °F 48.2 °F 56% 29.88 in 10.0 mi SE 17.3 mph - N/A   Clear
1:15 AM 64.4 °F 50.0 °F 59% 29.89 in 10.0 mi SE 12.7 mph - N/A   Mostly Cloudy
1:35 AM 62.6 °F 51.8 °F 68% 29.89 in 10.0 mi ESE 10.4 mph - N/A   Overcast
1:55 AM 62.6 °F 51.8 °F 68% 29.92 in 10.0 mi Calm Calm - N/A Thunderstorm Overcast
2:15 AM 57.2 °F 55.4 °F 94% 29.93 in 7.0 mi North 15.0 mph 21.9 mph 0.34 in Thunderstorm Thunderstorm
2:35 AM 57.2 °F 55.4 °F 94% 29.91 in 10.0 mi NNE 13.8 mph - 0.37 in Thunderstorm Overcast
2:55 AM 59.0 °F 55.4 °F 88% 29.88 in 10.0 mi ENE 12.7 mph 16.1 mph 0.37 in   Overcast
3:15 AM 60.8 °F 55.4 °F 82% 29.85 in 10.0 mi East 13.8 mph - N/A   Overcast
3:35 AM 60.8 °F 53.6 °F 77% 29.85 in 10.0 mi East 11.5 mph - N/A   Mostly Cloudy
3:55 AM 60.8 °F 53.6 °F 77% 29.89 in 10.0 mi ESE 6.9 mph - N/A   Overcast
4:15 AM 60.8 °F 53.6 °F 77% 29.87 in 10.0 mi East 10.4 mph - N/A   Overcast
4:35 AM 60.8 °F 53.6 °F 77% 29.87 in 10.0 mi East 8.1 mph - N/A   Mostly Cloudy
4:55 AM 60.8 °F 53.6 °F 77% 29.88 in 10.0 mi East 9.2 mph - N/A   Mostly Cloudy
5:15 AM 60.8 °F 53.6 °F 77% 29.85 in 10.0 mi East 10.4 mph - N/A   Mostly Cloudy
5:35 AM 60.8 °F 53.6 °F 77% 29.85 in 10.0 mi East 10.4 mph 17.3 mph N/A   Mostly Cloudy
5:55 AM 60.8 °F 53.6 °F 77% 29.85 in 10.0 mi ESE 10.4 mph 18.4 mph N/A   Mostly Cloudy
6:15 AM 60.8 °F 53.6 °F 77% 29.87 in 10.0 mi ESE 8.1 mph - N/A   Overcast
6:35 AM 60.8 °F 53.6 °F 77% 29.88 in 10.0 mi SE 11.5 mph - 0.01 in   Mostly Cloudy
6:55 AM 59.0 °F 53.6 °F 82% 29.88 in 4.0 mi ESE 8.1 mph - 0.08 in   Mostly Cloudy
7:15 AM 59.0 °F 53.6 °F 82% 29.89 in 10.0 mi SE 6.9 mph - N/A   Scattered Clouds
7:35 AM 59.0 °F 53.6 °F 82% 29.91 in 10.0 mi ESE 5.8 mph - N/A   Scattered Clouds
7:55 AM 59.0 °F 55.4 °F 88% 29.90 in 10.0 mi East 4.6 mph - N/A   Mostly Cloudy
8:15 AM 60.8 °F 55.4 °F 82% 29.91 in 10.0 mi East 6.9 mph - N/A   Mostly Cloudy
8:35 AM 60.8 °F 55.4 °F 82% 29.90 in 10.0 mi East 8.1 mph - N/A   Scattered Clouds
8:55 AM 62.6 °F 55.4 °F 77% 29.91 in 10.0 mi ESE 8.1 mph - N/A   Mostly Cloudy
9:15 AM 62.6 °F 55.4 °F 77% 29.92 in 10.0 mi SE 5.8 mph - N/A   Mostly Cloudy
9:35 AM 62.6 °F 55.4 °F 77% 29.93 in 10.0 mi South 6.9 mph - N/A   Mostly Cloudy
9:55 AM 62.6 °F 55.4 °F 77% 29.94 in 10.0 mi SE 5.8 mph - N/A   Overcast
10:15 AM 62.6 °F 55.4 °F 77% 29.94 in 10.0 mi ESE 3.5 mph - N/A   Overcast
10:35 AM 62.6 °F 57.2 °F 82% 29.94 in 10.0 mi ENE 5.8 mph - N/A   Overcast
10:55 AM 62.6 °F 57.2 °F 82% 29.94 in 10.0 mi NNE 3.5 mph - N/A   Overcast
11:15 AM 64.4 °F 57.2 °F 77% 29.95 in 10.0 mi Calm Calm - N/A   Overcast
11:35 AM 64.4 °F 57.2 °F 77% 29.95 in 10.0 mi NNE 3.5 mph - N/A   Overcast
11:55 AM 64.4 °F 57.2 °F 77% 29.94 in 10.0 mi NNW 3.5 mph - N/A   Overcast
12:15 PM 66.2 °F 57.2 °F 73% 29.94 in 10.0 mi NW 6.9 mph - N/A   Overcast
12:35 PM 66.2 °F 57.2 °F 73% 29.94 in 10.0 mi North 9.2 mph - N/A   Overcast
12:55 PM 66.2 °F 57.2 °F 73% 29.94 in 10.0 mi North 8.1 mph - N/A   Overcast
1:15 PM 66.2 °F 57.2 °F 73% 29.95 in 10.0 mi North 4.6 mph - N/A   Overcast
1:35 PM 66.2 °F 59.0 °F 78% 29.95 in 10.0 mi NNW 4.6 mph - N/A   Overcast
1:55 PM 66.2 °F 59.0 °F 78% 29.95 in 10.0 mi NNW 6.9 mph - N/A   Overcast
2:15 PM 66.2 °F 60.8 °F 83% 29.95 in 10.0 mi North 6.9 mph - N/A   Overcast
2:35 PM 68.0 °F 59.0 °F 73% 29.94 in 10.0 mi North 6.9 mph - N/A   Overcast
2:55 PM 69.8 °F 60.8 °F 73% 29.94 in 7.0 mi North 5.8 mph - N/A   Mostly Cloudy
3:15 PM 71.6 °F 59.0 °F 64% 29.94 in 10.0 mi North 10.4 mph - N/A   Mostly Cloudy
3:35 PM 69.8 °F 59.0 °F 68% 29.95 in 10.0 mi North 5.8 mph - N/A   Mostly Cloudy
3:55 PM 71.6 °F 60.8 °F 69% 29.95 in 10.0 mi NNW 8.1 mph - N/A   Scattered Clouds
4:15 PM 71.6 °F 57.2 °F 60% 29.94 in 10.0 mi NNW 5.8 mph - N/A   Partly Cloudy
4:35 PM 71.6 °F 60.8 °F 69% 29.95 in 10.0 mi NE 8.1 mph - N/A   Scattered Clouds
4:55 PM 69.8 °F 60.8 °F 73% 29.95 in 10.0 mi NNE 3.5 mph - N/A   Mostly Cloudy
5:15 PM 71.6 °F 62.6 °F 73% 29.94 in 10.0 mi NNE 6.9 mph - N/A   Partly Cloudy
5:35 PM 71.6 °F 60.8 °F 69% 29.94 in 10.0 mi Calm Calm - N/A   Partly Cloudy
5:55 PM 71.6 °F 60.8 °F 69% 29.94 in 10.0 mi North 5.8 mph - N/A   Clear
6:35 PM 71.6 °F 60.8 °F 69% 29.95 in 10.0 mi NNE 8.1 mph - N/A   Scattered Clouds
6:55 PM 73.4 °F 60.8 °F 65% 29.95 in 10.0 mi NE 5.8 mph - N/A   Mostly Cloudy
7:15 PM 73.4 °F 59.0 °F 61% 29.95 in 10.0 mi North 8.1 mph - N/A   Mostly Cloudy
7:35 PM 71.6 °F 53.6 °F 53% 29.96 in 10.0 mi NNW 8.1 mph - N/A   Partly Cloudy
7:55 PM 69.8 °F 55.4 °F 60% 29.97 in 10.0 mi NNW 6.9 mph - N/A   Clear
8:15 PM 69.8 °F 55.4 °F 60% 29.98 in 10.0 mi WNW 15.0 mph - N/A   Clear
8:35 PM 66.2 °F 51.8 °F 60% 29.99 in 10.0 mi WNW 9.2 mph - N/A   Clear
8:55 PM 64.4 °F 51.8 °F 64% 30.00 in 10.0 mi NW 8.1 mph - N/A   Clear
9:15 PM 62.6 °F 51.8 °F 68% 30.00 in 10.0 mi NW 6.9 mph - N/A   Mostly Cloudy
9:35 PM 62.6 °F 51.8 °F 68% 30.00 in 10.0 mi North 5.8 mph - N/A   Scattered Clouds
9:55 PM 60.8 °F 51.8 °F 72% 30.00 in 10.0 mi NNW 9.2 mph - N/A   Clear
10:15 PM 59.0 °F 51.8 °F 77% 30.01 in 10.0 mi NW 9.2 mph - N/A   Clear
10:35 PM 59.0 °F 51.8 °F 77% 30.02 in 10.0 mi NW 9.2 mph - N/A   Clear
10:55 PM 57.2 °F 50.0 °F 77% 30.03 in 10.0 mi NW 10.4 mph - N/A   Clear
11:15 PM 59.0 °F 50.0 °F 72% 30.04 in 10.0 mi NW 10.4 mph - N/A   Scattered Clouds
11:35 PM 60.8 °F 50.0 °F 68% 30.05 in 10.0 mi NW 11.5 mph - N/A   Overcast
11:55 PM 59.0 °F 50.0 °F 72% 30.05 in 10.0 mi NW 9.2 mph - N/A   Mostly Cloudy